TUI123 LOWW-GCTS

Flight info

Callsign TUI123
Flight time 5h 28m
Altitude 38000
Route OSPEN DCT ABRUK DCT SETAL DCT DETSA DCT GEKBA DCT VAMTU DCT KOLON DCT GANGU DCT PADKO DCT DIVKO DCT NILDU DCT NENDA DCT BCN DCT RODRA DCT PEXOT DCT EBROX DCT LOTOS DCT TORDU DCT DIKUT DCT SOPET DCT VLC DCT SERRA DCT ASTRO DCT POBOS DCT XEBAR DCT YES DCT MAMIS DCT BAZAS DCT VIBAS DCT MGA DCT BRIKE DCT VJF L82 RUNAX UL82 IBALU UN857 TERTO
Aircraft B738/M-SDE2E3FGHIRWXY/LB1

Departure

Time 2026-04-25 12:00
Airport Vienna International Airport (LOWW)

Arrival

Time 2026-04-25 17:28
Airport Tenerife Sur Airport (GCTS)
Time Latitude Longitude Altitude Speed Heading
2026-04-25 11:30 48.11789 16.56186 609 ft 0 kts 343°
2026-04-25 11:52 48.11778 16.56191 612 ft 4 kts 341°
2026-04-25 11:52 48.11753 16.56204 621 ft 4 kts 345°
2026-04-25 11:52 48.11733 16.56206 609 ft 4 kts 50°
2026-04-25 11:53 48.11722 16.56175 627 ft 4 kts 81°
2026-04-25 11:53 48.11721 16.56137 623 ft 4 kts 76°
2026-04-25 11:53 48.11708 16.56115 623 ft 4 kts 22°
2026-04-25 11:53 48.11686 16.56113 616 ft 4 kts 324°
2026-04-25 11:54 48.11671 16.56140 626 ft 1 kts 296°
2026-04-25 11:54 48.11671 16.56141 626 ft 1 kts 296°
2026-04-25 11:56 48.11678 16.56117 612 ft 3 kts 296°
2026-04-25 11:56 48.11696 16.56053 613 ft 11 kts 280°
2026-04-25 11:56 48.11629 16.55999 621 ft 18 kts 139°
2026-04-25 11:56 48.11559 16.56200 613 ft 23 kts 116°
2026-04-25 11:57 48.11489 16.56413 609 ft 23 kts 117°
2026-04-25 11:57 48.11422 16.56622 615 ft 22 kts 116°
2026-04-25 11:57 48.11356 16.56823 617 ft 21 kts 116°
2026-04-25 11:57 48.11288 16.57030 615 ft 22 kts 116°
2026-04-25 11:58 48.11226 16.57211 621 ft 16 kts 129°
2026-04-25 11:58 48.11131 16.57199 609 ft 15 kts 207°
2026-04-25 11:58 48.11059 16.57105 613 ft 14 kts 267°
2026-04-25 11:58 48.11069 16.57057 623 ft 0 kts 295°
2026-04-25 11:59 48.11071 16.57052 622 ft 4 kts 295°
2026-04-25 11:59 48.11172 16.56739 622 ft 68 kts 296°
2026-04-25 11:59 48.11474 16.55815 618 ft 128 kts 295°
2026-04-25 12:00 48.12381 16.52892 1521 ft 164 kts 288°
2026-04-25 12:00 48.12389 16.51214 2262 ft 170 kts 246°
2026-04-25 12:00 48.10133 16.48950 2984 ft 221 kts 206°
2026-04-25 12:01 48.08646 16.48052 3340 ft 237 kts 207°
2026-04-25 12:01 48.07194 16.46837 3787 ft 245 kts 225°
2026-04-25 12:01 48.05996 16.44934 4241 ft 257 kts 232°
2026-04-25 12:01 48.04721 16.43005 5024 ft 262 kts 225°
2026-04-25 12:02 48.01852 16.39476 6621 ft 272 kts 224°
2026-04-25 12:02 48.00394 16.37644 7394 ft 275 kts 224°
2026-04-25 12:02 47.98938 16.35771 8166 ft 278 kts 225°
2026-04-25 12:03 47.97465 16.33857 8892 ft 283 kts 225°
2026-04-25 12:03 47.96020 16.31838 9632 ft 285 kts 233°
2026-04-25 12:03 47.95078 16.29276 10289 ft 284 kts 254°
2026-04-25 12:03 47.94309 16.26433 10471 ft 311 kts 242°
2026-04-25 12:04 47.92750 16.24008 10669 ft 338 kts 222°
2026-04-25 12:04 47.90853 16.21816 11121 ft 349 kts 221°
2026-04-25 12:04 47.88999 16.19450 11807 ft 350 kts 227°
2026-04-25 12:04 47.87307 16.16838 12517 ft 351 kts 231°
2026-04-25 12:05 47.85703 16.14079 13238 ft 353 kts 233°
2026-04-25 12:05 47.84108 16.11277 13919 ft 357 kts 233°
2026-04-25 12:05 47.82485 16.08457 14574 ft 360 kts 232°
2026-04-25 12:05 47.80835 16.05641 15213 ft 362 kts 232°
2026-04-25 12:06 47.79158 16.02826 15858 ft 365 kts 231°
2026-04-25 12:06 47.77457 15.99999 16498 ft 368 kts 231°
2026-04-25 12:06 47.75738 15.97158 17103 ft 371 kts 231°
2026-04-25 12:06 47.74024 15.94338 17669 ft 374 kts 231°
2026-04-25 12:07 47.72268 15.91453 18285 ft 377 kts 231°
2026-04-25 12:07 47.70500 15.88552 18795 ft 380 kts 231°
2026-04-25 12:07 47.68722 15.85639 19362 ft 381 kts 231°
2026-04-25 12:07 47.66935 15.82713 19880 ft 384 kts 231°
2026-04-25 12:08 47.65139 15.79775 20428 ft 385 kts 231°
2026-04-25 12:08 47.63330 15.76819 20938 ft 388 kts 231°
2026-04-25 12:08 47.61509 15.73846 21438 ft 390 kts 231°
2026-04-25 12:08 47.59677 15.70857 21963 ft 392 kts 230°
2026-04-25 12:09 47.57838 15.67860 22450 ft 395 kts 230°
2026-04-25 12:09 47.55981 15.64839 22939 ft 397 kts 230°
2026-04-25 12:09 47.54119 15.61812 23422 ft 399 kts 230°
2026-04-25 12:09 47.52240 15.58761 23844 ft 402 kts 230°
2026-04-25 12:10 47.50370 15.55686 24230 ft 403 kts 232°
2026-04-25 12:10 47.48676 15.52377 24581 ft 403 kts 241°
2026-04-25 12:10 47.47652 15.48549 24970 ft 401 kts 259°
2026-04-25 12:10 47.47195 15.44488 25419 ft 401 kts 262°
2026-04-25 12:11 47.46730 15.40406 25744 ft 405 kts 257°
2026-04-25 12:11 47.45928 15.36407 26079 ft 408 kts 251°
2026-04-25 12:11 47.44931 15.32477 26448 ft 409 kts 250°
2026-04-25 12:11 47.43926 15.28530 26791 ft 411 kts 251°
2026-04-25 12:12 47.42991 15.24532 27116 ft 413 kts 253°
2026-04-25 12:12 47.42417 15.21854 27324 ft 414 kts 254°
2026-04-25 12:12 47.41340 15.16382 27764 ft 416 kts 255°
2026-04-25 12:12 47.40563 15.12264 28077 ft 417 kts 255°
2026-04-25 12:13 47.39773 15.08132 28371 ft 419 kts 255°
2026-04-25 12:13 47.38959 15.03987 28660 ft 421 kts 254°
2026-04-25 12:13 47.38132 14.99831 28944 ft 423 kts 254°
2026-04-25 12:13 47.37301 14.95665 29254 ft 424 kts 254°
2026-04-25 12:14 47.36749 14.92899 29462 ft 425 kts 254°
2026-04-25 12:14 47.35714 14.87711 29796 ft 427 kts 254°
2026-04-25 12:14 47.34875 14.83508 30142 ft 427 kts 254°
2026-04-25 12:14 47.34037 14.79316 30527 ft 424 kts 254°
2026-04-25 12:15 47.33204 14.75157 30864 ft 423 kts 254°
2026-04-25 12:15 47.32651 14.72405 31074 ft 422 kts 254°
2026-04-25 12:15 47.31819 14.68267 31408 ft 421 kts 254°
2026-04-25 12:15 47.30707 14.62751 31881 ft 418 kts 254°
2026-04-25 12:16 47.30158 14.60034 32084 ft 418 kts 254°
2026-04-25 12:16 47.29327 14.55930 32364 ft 418 kts 254°
2026-04-25 12:16 47.28497 14.51836 32694 ft 416 kts 254°
2026-04-25 12:16 47.27668 14.47755 32979 ft 416 kts 254°
2026-04-25 12:17 47.26838 14.43680 33264 ft 415 kts 254°
2026-04-25 12:17 47.26009 14.39616 33545 ft 414 kts 254°
2026-04-25 12:17 47.25182 14.35564 33830 ft 413 kts 254°
2026-04-25 12:17 47.24355 14.31527 34116 ft 411 kts 254°
2026-04-25 12:18 47.23528 14.27500 34341 ft 411 kts 254°
2026-04-25 12:18 47.22699 14.23473 34526 ft 412 kts 254°
2026-04-25 12:18 47.21864 14.19439 34745 ft 411 kts 254°
2026-04-25 12:18 47.21028 14.15420 34961 ft 410 kts 254°
2026-04-25 12:19 47.19638 14.08751 35308 ft 410 kts 254°
2026-04-25 12:19 47.18520 14.03399 35620 ft 409 kts 254°
2026-04-25 12:19 47.17684 13.99401 35778 ft 409 kts 254°
2026-04-25 12:20 47.16847 13.95407 35954 ft 409 kts 254°
2026-04-25 12:20 47.16019 13.91464 36164 ft 409 kts 254°
2026-04-25 12:20 47.15181 13.87479 36363 ft 408 kts 254°
2026-04-25 12:20 47.14342 13.83498 36520 ft 408 kts 254°
2026-04-25 12:21 47.13501 13.79517 36686 ft 408 kts 254°
2026-04-25 12:21 47.12660 13.75541 36869 ft 407 kts 254°
2026-04-25 12:21 47.11819 13.71574 37064 ft 406 kts 254°
2026-04-25 12:21 47.10978 13.67613 37195 ft 407 kts 254°
2026-04-25 12:22 47.10131 13.63634 37293 ft 409 kts 254°
2026-04-25 12:22 47.09283 13.59656 37443 ft 408 kts 254°
2026-04-25 12:22 47.08436 13.55692 37678 ft 406 kts 254°
2026-04-25 12:23 47.06732 13.47740 37769 ft 411 kts 254°
2026-04-25 12:23 47.05010 13.39730 37890 ft 412 kts 254°
2026-04-25 12:23 47.04146 13.35727 38036 ft 412 kts 254°
2026-04-25 12:24 47.03277 13.31710 38019 ft 414 kts 254°
2026-04-25 12:24 47.01540 13.23693 38056 ft 417 kts 253°
2026-04-25 12:25 46.99774 13.15571 38043 ft 420 kts 253°
2026-04-25 12:25 46.97988 13.07402 38041 ft 422 kts 253°
2026-04-25 12:26 46.96193 12.99222 38044 ft 421 kts 253°
2026-04-25 12:26 46.94396 12.91061 38035 ft 421 kts 253°
2026-04-25 12:27 46.92597 12.82921 38053 ft 419 kts 253°
2026-04-25 12:27 46.90795 12.74802 38035 ft 419 kts 253°
2026-04-25 12:28 46.88989 12.66697 38038 ft 419 kts 253°
2026-04-25 12:28 46.87188 12.58635 38055 ft 421 kts 253°
2026-04-25 12:29 46.85367 12.50524 38060 ft 419 kts 253°
2026-04-25 12:29 46.83549 12.42453 38074 ft 418 kts 253°
2026-04-25 12:30 46.81728 12.34395 38076 ft 417 kts 252°
2026-04-25 12:30 46.79682 12.26501 38073 ft 416 kts 244°
2026-04-25 12:30 46.78046 12.23029 38078 ft 418 kts 228°
2026-04-25 12:31 46.75951 12.20076 38060 ft 420 kts 226°
2026-04-25 12:31 46.72065 12.13806 38067 ft 415 kts 236°
2026-04-25 12:32 46.68810 12.06865 38067 ft 415 kts 238°
2026-04-25 12:32 46.65617 12.00175 38061 ft 415 kts 236°
2026-04-25 12:33 46.62181 11.93401 38049 ft 417 kts 235°
2026-04-25 12:33 46.58686 11.86725 38035 ft 419 kts 234°
2026-04-25 12:34 46.55137 11.80007 38031 ft 420 kts 234°
2026-04-25 12:34 46.51573 11.73274 37996 ft 420 kts 234°
2026-04-25 12:35 46.48012 11.66553 38003 ft 421 kts 234°
2026-04-25 12:35 46.44443 11.59832 38011 ft 421 kts 234°
2026-04-25 12:36 46.40861 11.53098 37996 ft 422 kts 234°
2026-04-25 12:36 46.37270 11.46366 37996 ft 423 kts 234°
2026-04-25 12:37 46.33667 11.39629 38007 ft 423 kts 234°
2026-04-25 12:37 46.30063 11.32906 38126 ft 423 kts 234°
2026-04-25 12:38 46.26464 11.26207 38149 ft 421 kts 234°
2026-04-25 12:38 46.22867 11.19530 38151 ft 420 kts 234°
2026-04-25 12:39 46.19276 11.12877 38152 ft 419 kts 234°
2026-04-25 12:39 46.15693 11.06257 38124 ft 417 kts 234°
2026-04-25 12:40 46.12163 10.99752 38137 ft 413 kts 234°
2026-04-25 12:40 46.08620 10.93235 38100 ft 414 kts 233°
2026-04-25 12:41 46.05065 10.86711 38095 ft 414 kts 233°
2026-04-25 12:41 46.01500 10.80183 38074 ft 415 kts 233°
2026-04-25 12:42 45.97917 10.73638 38069 ft 418 kts 233°
2026-04-25 12:42 45.94309 10.67068 38082 ft 419 kts 233°
2026-04-25 12:43 45.90686 10.60478 38058 ft 421 kts 233°
2026-04-25 12:43 45.85230 10.50589 38066 ft 421 kts 233°
2026-04-25 12:44 45.81588 10.44008 38059 ft 421 kts 233°
2026-04-25 12:45 45.76122 10.34161 38055 ft 420 kts 233°
2026-04-25 12:45 45.70652 10.24337 38037 ft 421 kts 233°
2026-04-25 12:46 45.66991 10.17781 38019 ft 422 kts 233°
2026-04-25 12:46 45.63323 10.11230 38029 ft 422 kts 233°
2026-04-25 12:47 45.59678 10.04735 38031 ft 422 kts 233°
2026-04-25 12:47 45.56008 9.98210 38033 ft 421 kts 233°
2026-04-25 12:48 45.52339 9.91703 38038 ft 421 kts 233°
2026-04-25 12:48 45.48671 9.85211 38036 ft 420 kts 233°
2026-04-25 12:49 45.45001 9.78731 38082 ft 420 kts 233°
2026-04-25 12:49 45.41329 9.72262 38082 ft 420 kts 233°
2026-04-25 12:50 45.37656 9.65805 38084 ft 420 kts 233°
2026-04-25 12:50 45.33979 9.59357 38081 ft 420 kts 233°
2026-04-25 12:51 45.30297 9.52916 38019 ft 420 kts 233°
2026-04-25 12:51 45.26609 9.46478 38024 ft 420 kts 233°
2026-04-25 12:52 45.22913 9.40040 38023 ft 421 kts 233°
2026-04-25 12:52 45.19205 9.33597 38024 ft 422 kts 232°
2026-04-25 12:53 45.15520 9.27208 38022 ft 422 kts 232°
2026-04-25 12:53 45.11793 9.20761 38035 ft 423 kts 232°
2026-04-25 12:54 45.08065 9.14326 38036 ft 423 kts 232°
2026-04-25 12:54 45.04326 9.07889 38038 ft 424 kts 232°
2026-04-25 12:55 45.01215 9.02544 38043 ft 424 kts 232°
2026-04-25 12:55 44.96828 8.95022 38045 ft 424 kts 232°
2026-04-25 12:56 44.93070 8.88594 38045 ft 424 kts 232°
2026-04-25 12:56 44.89310 8.82179 38043 ft 424 kts 232°
2026-04-25 12:57 44.85543 8.75766 38040 ft 424 kts 232°
2026-04-25 12:57 44.81783 8.69379 38044 ft 424 kts 232°
2026-04-25 12:58 44.78017 8.62995 38041 ft 423 kts 232°
2026-04-25 12:58 44.74253 8.56630 38045 ft 423 kts 232°
2026-04-25 12:59 44.70511 8.50317 38042 ft 423 kts 232°
2026-04-25 12:59 44.66746 8.43978 38049 ft 422 kts 231°
2026-04-25 13:00 44.64226 8.39744 38045 ft 422 kts 231°
2026-04-25 13:00 44.59206 8.31327 38041 ft 422 kts 231°
2026-04-25 13:01 44.55434 8.25018 38045 ft 422 kts 231°
2026-04-25 13:01 44.51653 8.18709 38051 ft 423 kts 231°
2026-04-25 13:02 44.47871 8.12412 38060 ft 422 kts 231°
2026-04-25 13:02 44.44079 8.06112 38049 ft 424 kts 231°
2026-04-25 13:03 44.40277 7.99809 38053 ft 424 kts 231°
2026-04-25 13:03 44.36491 7.93545 38047 ft 425 kts 231°
2026-04-25 13:04 44.32669 7.87235 38052 ft 426 kts 231°
2026-04-25 13:04 44.28834 7.80918 38054 ft 427 kts 231°
2026-04-25 13:05 44.24842 7.74772 38050 ft 429 kts 224°
2026-04-25 13:05 44.20274 7.69411 38049 ft 430 kts 220°
2026-04-25 13:06 44.15728 7.64010 38060 ft 430 kts 223°
2026-04-25 13:06 44.11470 7.58191 38063 ft 428 kts 229°
2026-04-25 13:07 44.07584 7.51923 38072 ft 427 kts 232°
2026-04-25 13:07 44.03835 7.45504 38074 ft 428 kts 231°
2026-04-25 13:08 44.00650 7.40245 38074 ft 428 kts 230°
2026-04-25 13:08 43.96751 7.34004 38084 ft 428 kts 230°
2026-04-25 13:09 43.92827 7.27796 38084 ft 428 kts 230°
2026-04-25 13:09 43.88901 7.21590 38094 ft 428 kts 230°
2026-04-25 13:10 43.84971 7.15386 38094 ft 428 kts 230°
2026-04-25 13:10 43.81043 7.09193 38092 ft 428 kts 230°
2026-04-25 13:11 43.77112 7.03008 38095 ft 428 kts 230°
2026-04-25 13:11 43.73206 6.96809 38096 ft 427 kts 233°
2026-04-25 13:12 43.71574 6.93445 38070 ft 426 kts 246°
2026-04-25 13:12 43.70608 6.89599 38138 ft 423 kts 255°
2026-04-25 13:12 43.69244 6.83031 38103 ft 424 kts 250°
2026-04-25 13:13 43.66397 6.74398 38094 ft 425 kts 245°
2026-04-25 13:13 43.63900 6.66992 38083 ft 425 kts 247°
2026-04-25 13:14 43.61587 6.59477 38079 ft 426 kts 248°
2026-04-25 13:14 43.59343 6.51916 38058 ft 426 kts 248°
2026-04-25 13:15 43.57094 6.44344 38055 ft 427 kts 248°
2026-04-25 13:15 43.54828 6.36771 38053 ft 428 kts 248°
2026-04-25 13:16 43.52547 6.29181 38052 ft 429 kts 248°
2026-04-25 13:16 43.50256 6.21581 38057 ft 430 kts 248°
2026-04-25 13:17 43.47971 6.14017 38054 ft 431 kts 248°
2026-04-25 13:17 43.45664 6.06407 38055 ft 431 kts 248°
2026-04-25 13:18 43.43354 5.98803 38064 ft 431 kts 248°
2026-04-25 13:18 43.41042 5.91207 38069 ft 430 kts 248°
2026-04-25 13:19 43.38731 5.83635 38073 ft 429 kts 248°
2026-04-25 13:19 43.36808 5.77351 38073 ft 429 kts 248°
2026-04-25 13:20 43.34105 5.68546 38080 ft 427 kts 248°
2026-04-25 13:20 43.31788 5.61017 38089 ft 427 kts 248°
2026-04-25 13:21 43.29472 5.53517 38080 ft 426 kts 248°
2026-04-25 13:21 43.27156 5.46034 38088 ft 426 kts 247°
2026-04-25 13:22 43.24837 5.38562 38090 ft 426 kts 247°
2026-04-25 13:23 43.21337 5.27355 38086 ft 426 kts 247°
2026-04-25 13:23 43.19000 5.19933 38091 ft 427 kts 247°
2026-04-25 13:24 43.16640 5.12452 38094 ft 428 kts 247°
2026-04-25 13:24 43.14269 5.04952 38100 ft 429 kts 247°
2026-04-25 13:25 43.11883 4.97424 38100 ft 431 kts 247°
2026-04-25 13:25 43.09491 4.89896 38099 ft 432 kts 247°
2026-04-25 13:26 43.07086 4.82356 38098 ft 433 kts 246°
2026-04-25 13:26 43.04019 4.75306 38065 ft 434 kts 223°
2026-04-25 13:26 43.01578 4.72895 38142 ft 434 kts 211°
2026-04-25 13:27 42.98967 4.70817 38086 ft 435 kts 213°
2026-04-25 13:27 42.96602 4.68279 38081 ft 433 kts 228°
2026-04-25 13:27 42.94644 4.65171 38121 ft 432 kts 232°
2026-04-25 13:28 42.90716 4.59030 38096 ft 433 kts 224°
2026-04-25 13:28 42.86126 4.53694 38105 ft 434 kts 220°
2026-04-25 13:29 42.81452 4.48473 38103 ft 435 kts 221°
2026-04-25 13:29 42.76860 4.43116 38110 ft 435 kts 222°
2026-04-25 13:30 42.70043 4.34968 38110 ft 434 kts 222°
2026-04-25 13:31 42.63242 4.26849 38111 ft 433 kts 222°
2026-04-25 13:31 42.58711 4.21464 38112 ft 432 kts 222°
2026-04-25 13:32 42.54187 4.16100 38117 ft 431 kts 221°
2026-04-25 13:32 42.49694 4.10781 38112 ft 431 kts 221°
2026-04-25 13:33 42.45185 4.05454 38117 ft 430 kts 221°
2026-04-25 13:33 42.40680 4.00142 38115 ft 429 kts 221°
2026-04-25 13:34 42.36184 3.94851 38118 ft 428 kts 221°
2026-04-25 13:34 42.31688 3.89568 38120 ft 428 kts 221°
2026-04-25 13:35 42.27951 3.85187 38122 ft 427 kts 221°
2026-04-25 13:35 42.23058 3.78556 38107 ft 427 kts 231°
2026-04-25 13:36 42.19677 3.71985 38125 ft 426 kts 238°
2026-04-25 13:36 42.16528 3.65265 38117 ft 427 kts 237°
2026-04-25 13:37 42.13200 3.58629 38115 ft 428 kts 235°
2026-04-25 13:37 42.09757 3.52082 38113 ft 428 kts 234°
2026-04-25 13:38 42.06277 3.45550 38111 ft 429 kts 234°
2026-04-25 13:38 42.02798 3.39026 38113 ft 430 kts 234°
2026-04-25 13:39 41.99310 3.32488 38111 ft 430 kts 234°
2026-04-25 13:39 41.95819 3.25951 38108 ft 431 kts 234°
2026-04-25 13:40 41.92321 3.19417 38109 ft 431 kts 234°
2026-04-25 13:40 41.88817 3.12887 38089 ft 431 kts 234°
2026-04-25 13:41 41.85329 3.06399 38090 ft 431 kts 234°
2026-04-25 13:41 41.81815 2.99876 38101 ft 431 kts 234°
2026-04-25 13:42 41.78303 2.93372 38078 ft 431 kts 234°
2026-04-25 13:42 41.74788 2.86876 38096 ft 430 kts 233°
2026-04-25 13:43 41.71276 2.80396 38093 ft 430 kts 233°
2026-04-25 13:43 41.67760 2.73934 38083 ft 429 kts 233°
2026-04-25 13:44 41.64133 2.67605 38106 ft 428 kts 231°
2026-04-25 13:44 41.60438 2.61358 38107 ft 428 kts 231°
2026-04-25 13:45 41.56762 2.55113 38104 ft 428 kts 231°
2026-04-25 13:45 41.53104 2.48865 38114 ft 427 kts 231°
2026-04-25 13:46 41.49446 2.42617 38114 ft 427 kts 231°
2026-04-25 13:46 41.45790 2.36384 38103 ft 427 kts 231°
2026-04-25 13:47 41.42131 2.30163 38111 ft 427 kts 231°
2026-04-25 13:47 41.38462 2.23935 38133 ft 427 kts 231°
2026-04-25 13:48 41.34786 2.17708 38128 ft 428 kts 231°
2026-04-25 13:48 41.31102 2.11482 38132 ft 429 kts 231°
2026-04-25 13:49 41.27291 2.05378 38141 ft 429 kts 228°
2026-04-25 13:49 41.23258 1.99537 38125 ft 429 kts 226°
2026-04-25 13:50 41.19190 1.93722 38135 ft 430 kts 227°
2026-04-25 13:50 41.15171 1.87837 38125 ft 430 kts 227°
2026-04-25 13:51 41.11172 1.81933 38124 ft 431 kts 227°
2026-04-25 13:51 41.07165 1.76034 38132 ft 431 kts 227°
2026-04-25 13:52 41.03151 1.70143 38131 ft 431 kts 227°
2026-04-25 13:52 40.99136 1.64256 38129 ft 431 kts 227°
2026-04-25 13:53 40.95119 1.58373 38135 ft 431 kts 227°
2026-04-25 13:53 40.91099 1.52496 38127 ft 431 kts 227°
2026-04-25 13:54 40.87103 1.46664 38131 ft 431 kts 227°
2026-04-25 13:54 40.83071 1.40804 38138 ft 431 kts 227°
2026-04-25 13:55 40.79033 1.34958 38135 ft 431 kts 227°
2026-04-25 13:55 40.74991 1.29110 38131 ft 431 kts 227°
2026-04-25 13:56 40.71600 1.24212 38135 ft 431 kts 227°
2026-04-25 13:56 40.67553 1.18374 38131 ft 432 kts 227°
2026-04-25 13:57 40.63500 1.12529 38127 ft 432 kts 227°
2026-04-25 13:57 40.59443 1.06686 38132 ft 432 kts 227°
2026-04-25 13:58 40.55408 1.00889 38128 ft 433 kts 226°
2026-04-25 13:58 40.51338 0.95066 38128 ft 433 kts 226°
2026-04-25 13:59 40.47259 0.89250 38130 ft 433 kts 226°
2026-04-25 13:59 40.43178 0.83438 38126 ft 433 kts 226°
2026-04-25 14:00 40.39759 0.78577 38126 ft 432 kts 226°
2026-04-25 14:00 40.35016 0.71844 38131 ft 432 kts 226°
2026-04-25 14:01 40.30937 0.66064 38129 ft 432 kts 226°
2026-04-25 14:01 40.26861 0.60301 38125 ft 431 kts 226°
2026-04-25 14:02 40.22792 0.54563 38131 ft 430 kts 225°
2026-04-25 14:02 40.18721 0.48838 38125 ft 429 kts 225°
2026-04-25 14:03 40.14657 0.43131 38127 ft 429 kts 225°
2026-04-25 14:03 40.10595 0.37436 38128 ft 428 kts 225°
2026-04-25 14:04 40.06536 0.31754 38129 ft 427 kts 225°
2026-04-25 14:04 40.02476 0.26080 38129 ft 427 kts 225°
2026-04-25 14:05 39.98414 0.20413 38131 ft 428 kts 225°
2026-04-25 14:05 39.94351 0.14743 38132 ft 428 kts 225°
2026-04-25 14:06 39.90283 0.09073 38127 ft 429 kts 225°
2026-04-25 14:06 39.86206 0.03399 38126 ft 429 kts 225°
2026-04-25 14:07 39.82143 -0.02239 38127 ft 430 kts 225°
2026-04-25 14:07 39.78034 -0.07915 38124 ft 431 kts 225°
2026-04-25 14:08 39.73916 -0.13592 38126 ft 432 kts 225°
2026-04-25 14:08 39.69787 -0.19276 38120 ft 433 kts 225°
2026-04-25 14:09 39.65646 -0.24971 38112 ft 434 kts 225°
2026-04-25 14:09 39.61494 -0.30668 38112 ft 435 kts 225°
2026-04-25 14:10 39.57337 -0.36362 38105 ft 435 kts 225°
2026-04-25 14:10 39.53165 -0.42068 38107 ft 436 kts 225°
2026-04-25 14:11 39.48988 -0.47770 38100 ft 437 kts 225°
2026-04-25 14:11 39.45020 -0.53729 38102 ft 438 kts 230°
2026-04-25 14:12 39.41404 -0.60018 38109 ft 439 kts 233°
2026-04-25 14:12 39.37877 -0.66465 38106 ft 439 kts 232°
2026-04-25 14:13 39.34231 -0.72800 38110 ft 439 kts 231°
2026-04-25 14:13 39.30525 -0.79064 38112 ft 439 kts 231°
2026-04-25 14:14 39.26814 -0.85331 38113 ft 439 kts 231°
2026-04-25 14:14 39.23102 -0.91593 38110 ft 439 kts 231°
2026-04-25 14:15 39.19385 -0.97850 38112 ft 439 kts 231°
2026-04-25 14:15 39.15663 -1.04106 38116 ft 439 kts 231°
2026-04-25 14:16 39.11938 -1.10349 38109 ft 440 kts 231°
2026-04-25 14:16 39.08232 -1.16555 38117 ft 439 kts 231°
2026-04-25 14:17 39.04504 -1.22788 38112 ft 440 kts 231°
2026-04-25 14:17 39.00765 -1.29025 38117 ft 440 kts 231°
2026-04-25 14:18 38.97028 -1.35257 38109 ft 440 kts 231°
2026-04-25 14:18 38.93283 -1.41496 38119 ft 440 kts 231°
2026-04-25 14:19 38.89536 -1.47728 38118 ft 441 kts 231°
2026-04-25 14:19 38.85788 -1.53948 38124 ft 441 kts 231°
2026-04-25 14:20 38.82030 -1.60172 38130 ft 441 kts 231°
2026-04-25 14:20 38.78273 -1.66386 38133 ft 441 kts 231°
2026-04-25 14:21 38.74538 -1.72551 38139 ft 441 kts 231°
2026-04-25 14:21 38.70769 -1.78757 38139 ft 441 kts 231°
2026-04-25 14:22 38.66994 -1.84953 38145 ft 441 kts 231°
2026-04-25 14:22 38.63214 -1.91145 38147 ft 442 kts 231°
2026-04-25 14:23 38.59427 -1.97341 38150 ft 442 kts 231°
2026-04-25 14:23 38.55637 -2.03532 38149 ft 443 kts 231°
2026-04-25 14:24 38.51837 -2.09726 38155 ft 443 kts 231°
2026-04-25 14:24 38.48013 -2.15952 38154 ft 448 kts 231°
2026-04-25 14:25 38.44156 -2.22227 38137 ft 449 kts 231°
2026-04-25 14:25 38.40305 -2.28483 38137 ft 448 kts 231°
2026-04-25 14:26 38.36456 -2.34720 38133 ft 447 kts 231°
2026-04-25 14:26 38.32440 -2.40744 38132 ft 446 kts 227°
2026-04-25 14:27 38.28127 -2.46411 38127 ft 445 kts 224°
2026-04-25 14:27 38.23748 -2.51971 38117 ft 444 kts 225°
2026-04-25 14:28 38.19447 -2.57616 38112 ft 444 kts 226°
2026-04-25 14:28 38.15215 -2.63271 38105 ft 445 kts 226°
2026-04-25 14:29 38.10950 -2.68974 38102 ft 445 kts 226°
2026-04-25 14:29 38.06669 -2.74676 38103 ft 446 kts 226°
2026-04-25 14:30 38.02383 -2.80372 38098 ft 447 kts 226°
2026-04-25 14:30 37.95930 -2.88929 38093 ft 448 kts 226°
2026-04-25 14:31 37.91607 -2.94630 38083 ft 449 kts 226°
2026-04-25 14:31 37.87264 -3.00333 38086 ft 450 kts 226°
2026-04-25 14:32 37.82912 -3.06044 38089 ft 451 kts 226°
2026-04-25 14:32 37.78548 -3.11765 38079 ft 452 kts 226°
2026-04-25 14:33 37.74170 -3.17492 38081 ft 454 kts 226°
2026-04-25 14:33 37.69779 -3.23238 38072 ft 455 kts 226°
2026-04-25 14:34 37.65394 -3.28985 38079 ft 454 kts 226°
2026-04-25 14:34 37.61010 -3.34721 38080 ft 453 kts 226°
2026-04-25 14:35 37.56633 -3.40436 38076 ft 453 kts 226°
2026-04-25 14:35 37.52261 -3.46134 38082 ft 452 kts 226°
2026-04-25 14:36 37.47893 -3.51817 38081 ft 451 kts 226°
2026-04-25 14:36 37.43530 -3.57482 38079 ft 451 kts 226°
2026-04-25 14:37 37.39195 -3.63101 38065 ft 450 kts 226°
2026-04-25 14:37 37.34805 -3.68775 38082 ft 449 kts 226°
2026-04-25 14:38 37.30449 -3.74387 38079 ft 448 kts 226°
2026-04-25 14:38 37.26120 -3.79953 38069 ft 448 kts 226°
2026-04-25 14:39 37.21774 -3.85547 38087 ft 447 kts 226°
2026-04-25 14:39 37.17423 -3.91134 38068 ft 447 kts 226°
2026-04-25 14:40 37.13076 -3.96704 38077 ft 447 kts 226°
2026-04-25 14:40 37.08728 -4.02264 38076 ft 447 kts 226°
2026-04-25 14:41 37.04375 -4.07821 38081 ft 447 kts 227°
2026-04-25 14:41 37.00758 -4.12432 38079 ft 446 kts 227°
2026-04-25 14:42 36.97142 -4.17034 38088 ft 446 kts 227°
2026-04-25 14:42 36.91330 -4.24420 38073 ft 449 kts 227°
2026-04-25 14:43 36.87661 -4.29074 38076 ft 448 kts 227°
2026-04-25 14:43 36.83295 -4.34641 38084 ft 448 kts 229°
2026-04-25 14:44 36.79610 -4.40773 38036 ft 443 kts 250°
2026-04-25 14:44 36.78143 -4.48147 38066 ft 438 kts 259°
2026-04-25 14:45 36.76418 -4.55447 38073 ft 440 kts 251°
2026-04-25 14:45 36.74133 -4.62535 38068 ft 441 kts 250°
2026-04-25 14:46 36.71889 -4.69658 38073 ft 441 kts 251°
2026-04-25 14:46 36.69751 -4.76818 38077 ft 441 kts 252°
2026-04-25 14:47 36.67999 -4.82789 38086 ft 442 kts 252°
2026-04-25 14:47 36.65525 -4.91208 38075 ft 443 kts 252°
2026-04-25 14:48 36.63393 -4.98417 38078 ft 444 kts 252°
2026-04-25 14:48 36.61268 -5.05579 38068 ft 444 kts 252°
2026-04-25 14:49 36.59123 -5.12785 38076 ft 444 kts 252°
2026-04-25 14:49 36.56975 -5.19992 38075 ft 444 kts 252°
2026-04-25 14:50 36.54825 -5.27183 38068 ft 443 kts 252°
2026-04-25 14:50 36.52675 -5.34358 38060 ft 442 kts 252°
2026-04-25 14:51 36.50508 -5.41514 38053 ft 441 kts 250°
2026-04-25 14:51 36.47757 -5.48333 38058 ft 442 kts 241°
2026-04-25 14:52 36.44461 -5.54785 38054 ft 441 kts 240°
2026-04-25 14:52 36.41756 -5.60156 38050 ft 440 kts 241°
2026-04-25 14:53 36.38103 -5.67758 38043 ft 438 kts 242°
2026-04-25 14:53 36.35018 -5.74280 38048 ft 437 kts 242°
2026-04-25 14:54 36.31932 -5.80780 38035 ft 437 kts 242°
2026-04-25 14:54 36.28841 -5.87261 38038 ft 436 kts 242°
2026-04-25 14:55 36.25752 -5.93727 38044 ft 436 kts 242°
2026-04-25 14:55 36.22603 -6.00104 38034 ft 438 kts 239°
2026-04-25 14:56 36.19000 -6.06198 38037 ft 440 kts 234°
2026-04-25 14:56 36.15127 -6.12071 38033 ft 440 kts 234°
2026-04-25 14:57 36.11332 -6.18013 38033 ft 440 kts 236°
2026-04-25 14:57 36.07610 -6.24021 38037 ft 440 kts 236°
2026-04-25 14:58 36.03906 -6.30031 38034 ft 440 kts 236°
2026-04-25 14:58 36.00193 -6.36032 38029 ft 439 kts 236°
2026-04-25 14:59 35.96477 -6.42022 38031 ft 439 kts 236°
2026-04-25 14:59 35.92761 -6.47997 38024 ft 438 kts 236°
2026-04-25 15:00 35.89051 -6.53961 38020 ft 438 kts 236°
2026-04-25 15:00 35.85372 -6.59873 38011 ft 437 kts 237°
2026-04-25 15:01 35.81671 -6.65804 38010 ft 436 kts 237°
2026-04-25 15:01 35.77976 -6.71707 38021 ft 434 kts 237°
2026-04-25 15:02 35.74290 -6.77588 38025 ft 433 kts 237°
2026-04-25 15:02 35.70612 -6.83450 38022 ft 432 kts 237°
2026-04-25 15:03 35.66946 -6.89285 38023 ft 430 kts 237°
2026-04-25 15:03 35.63289 -6.95094 38029 ft 429 kts 236°
2026-04-25 15:04 35.59641 -7.00880 38033 ft 427 kts 236°
2026-04-25 15:04 35.56005 -7.06637 38041 ft 426 kts 236°
2026-04-25 15:05 35.52378 -7.12371 38039 ft 424 kts 236°
2026-04-25 15:06 35.46955 -7.20925 38042 ft 422 kts 236°
2026-04-25 15:06 35.43348 -7.26604 38034 ft 421 kts 236°
2026-04-25 15:07 35.39750 -7.32260 38033 ft 420 kts 236°
2026-04-25 15:07 35.36153 -7.37905 38037 ft 420 kts 236°
2026-04-25 15:08 35.32555 -7.43541 38035 ft 420 kts 236°
2026-04-25 15:08 35.28979 -7.49134 38034 ft 420 kts 236°
2026-04-25 15:09 35.25356 -7.54793 38037 ft 420 kts 236°
2026-04-25 15:09 35.19966 -7.63192 38034 ft 420 kts 236°
2026-04-25 15:10 35.16353 -7.68812 38032 ft 421 kts 236°
2026-04-25 15:11 35.10925 -7.77237 38035 ft 421 kts 235°
2026-04-25 15:11 35.07297 -7.82857 38035 ft 421 kts 235°
2026-04-25 15:12 35.01847 -7.91283 38031 ft 421 kts 235°
2026-04-25 15:12 34.99416 -7.95035 38027 ft 422 kts 235°
2026-04-25 15:13 34.92751 -8.05301 38026 ft 422 kts 235°
2026-04-25 15:14 34.89108 -8.10899 38027 ft 422 kts 235°
2026-04-25 15:14 34.85462 -8.16493 38032 ft 421 kts 234°
2026-04-25 15:15 34.81818 -8.22075 38027 ft 421 kts 234°
2026-04-25 15:15 34.78168 -8.27658 38028 ft 421 kts 234°
2026-04-25 15:16 34.74541 -8.33196 38030 ft 421 kts 234°
2026-04-25 15:16 34.69064 -8.41544 38027 ft 421 kts 234°
2026-04-25 15:17 34.63582 -8.49879 38026 ft 421 kts 234°
2026-04-25 15:18 34.59928 -8.55425 38027 ft 421 kts 234°
2026-04-25 15:18 34.54439 -8.63739 38026 ft 421 kts 234°
2026-04-25 15:19 34.51987 -8.67447 38028 ft 421 kts 234°
2026-04-25 15:19 34.47108 -8.74816 38028 ft 421 kts 233°
2026-04-25 15:20 34.43282 -8.80190 38008 ft 424 kts 222°
2026-04-25 15:20 34.38231 -8.83964 38013 ft 428 kts 213°
2026-04-25 15:21 34.33513 -8.88255 38033 ft 423 kts 225°
2026-04-25 15:21 34.29207 -8.93056 38020 ft 424 kts 224°
2026-04-25 15:22 34.24734 -8.97723 38025 ft 425 kts 222°
2026-04-25 15:22 34.20126 -9.02224 38024 ft 426 kts 221°
2026-04-25 15:23 34.15468 -9.06665 38026 ft 427 kts 220°
2026-04-25 15:23 34.10799 -9.11102 38023 ft 427 kts 220°
2026-04-25 15:24 34.06129 -9.15545 38022 ft 428 kts 220°
2026-04-25 15:24 34.03033 -9.18490 38025 ft 428 kts 220°
2026-04-25 15:25 33.96780 -9.24433 38028 ft 428 kts 220°
2026-04-25 15:25 33.92100 -9.28873 38020 ft 428 kts 220°
2026-04-25 15:26 33.87418 -9.33308 38026 ft 428 kts 220°
2026-04-25 15:26 33.82760 -9.37714 38019 ft 428 kts 220°
2026-04-25 15:27 33.78072 -9.42142 38016 ft 429 kts 220°
2026-04-25 15:28 33.71037 -9.48776 38016 ft 429 kts 220°
2026-04-25 15:28 33.66345 -9.53193 38016 ft 429 kts 220°
2026-04-25 15:29 33.61647 -9.57608 38017 ft 429 kts 220°
2026-04-25 15:29 33.57712 -9.61302 38017 ft 429 kts 220°
2026-04-25 15:30 33.53041 -9.65680 38019 ft 429 kts 220°
2026-04-25 15:30 33.48339 -9.70082 38012 ft 429 kts 220°
2026-04-25 15:31 33.43631 -9.74483 38021 ft 429 kts 220°
2026-04-25 15:31 33.38922 -9.78879 38010 ft 429 kts 219°
2026-04-25 15:32 33.34206 -9.83274 38009 ft 429 kts 219°
2026-04-25 15:32 33.29495 -9.87660 38011 ft 429 kts 219°
2026-04-25 15:33 33.22418 -9.94237 38009 ft 429 kts 219°
2026-04-25 15:33 33.17707 -9.98607 38010 ft 429 kts 219°
2026-04-25 15:34 33.12991 -10.02976 38010 ft 429 kts 219°
2026-04-25 15:34 33.09076 -10.06599 38007 ft 429 kts 219°
2026-04-25 15:35 33.01217 -10.13859 38007 ft 428 kts 219°
2026-04-25 15:36 32.94152 -10.20363 38004 ft 428 kts 219°
2026-04-25 15:36 32.89446 -10.24688 38006 ft 427 kts 219°
2026-04-25 15:37 32.84741 -10.29007 38005 ft 427 kts 219°
2026-04-25 15:37 32.80041 -10.33318 38004 ft 427 kts 219°
2026-04-25 15:38 32.75339 -10.37625 38006 ft 426 kts 219°
2026-04-25 15:38 32.70644 -10.41919 38005 ft 426 kts 219°
2026-04-25 15:39 32.65947 -10.46209 38001 ft 426 kts 219°
2026-04-25 15:39 32.61251 -10.50493 38001 ft 425 kts 219°
2026-04-25 15:40 32.57350 -10.54046 37998 ft 425 kts 218°
2026-04-25 15:40 32.51897 -10.59006 37999 ft 425 kts 218°
2026-04-25 15:41 32.47207 -10.63267 37997 ft 425 kts 218°
2026-04-25 15:41 32.42518 -10.67520 37993 ft 424 kts 218°
2026-04-25 15:42 32.37830 -10.71767 37997 ft 424 kts 218°
2026-04-25 15:42 32.33149 -10.76003 38000 ft 424 kts 218°
2026-04-25 15:43 32.28461 -10.80239 37994 ft 424 kts 218°
2026-04-25 15:43 32.23779 -10.84463 37997 ft 424 kts 218°
2026-04-25 15:44 32.19094 -10.88685 37990 ft 424 kts 218°
2026-04-25 15:44 32.14409 -10.92902 37993 ft 423 kts 218°
2026-04-25 15:45 32.09724 -10.97113 37994 ft 423 kts 218°
2026-04-25 15:45 32.05830 -11.00609 37994 ft 423 kts 218°
2026-04-25 15:46 32.00350 -11.05521 37998 ft 423 kts 218°
2026-04-25 15:46 31.95662 -11.09719 37994 ft 423 kts 218°
2026-04-25 15:47 31.90970 -11.13913 37993 ft 423 kts 218°
2026-04-25 15:47 31.86311 -11.18074 37996 ft 423 kts 218°
2026-04-25 15:48 31.81616 -11.22262 37995 ft 423 kts 218°
2026-04-25 15:48 31.76923 -11.26443 37992 ft 423 kts 218°
2026-04-25 15:49 31.72226 -11.30623 37991 ft 423 kts 218°
2026-04-25 15:49 31.67532 -11.34804 37991 ft 423 kts 218°
2026-04-25 15:50 31.62837 -11.38982 37999 ft 423 kts 218°
2026-04-25 15:50 31.58145 -11.43152 37995 ft 424 kts 218°
2026-04-25 15:51 31.54237 -11.46621 37998 ft 424 kts 218°
2026-04-25 15:51 31.48743 -11.51493 37997 ft 424 kts 218°
2026-04-25 15:52 31.44038 -11.55659 37996 ft 424 kts 218°
2026-04-25 15:52 31.39331 -11.59820 37990 ft 424 kts 218°
2026-04-25 15:53 31.34618 -11.63983 38001 ft 424 kts 218°
2026-04-25 15:53 31.29901 -11.68142 38002 ft 425 kts 218°
2026-04-25 15:54 31.25179 -11.72301 37990 ft 425 kts 218°
2026-04-25 15:54 31.20454 -11.76457 37993 ft 425 kts 218°
2026-04-25 15:55 31.15723 -11.80613 38002 ft 426 kts 218°
2026-04-25 15:55 31.10987 -11.84769 38004 ft 426 kts 218°
2026-04-25 15:56 31.06248 -11.88921 37992 ft 426 kts 218°
2026-04-25 15:56 31.01499 -11.93078 38007 ft 427 kts 218°
2026-04-25 15:57 30.96747 -11.97232 37993 ft 427 kts 218°
2026-04-25 15:57 30.92017 -12.01360 38000 ft 428 kts 218°
2026-04-25 15:58 30.87256 -12.05511 38008 ft 428 kts 218°
2026-04-25 15:58 30.82484 -12.09666 38004 ft 428 kts 218°
2026-04-25 15:59 30.77706 -12.13822 38011 ft 429 kts 218°
2026-04-25 15:59 30.72927 -12.17972 37998 ft 429 kts 219°
2026-04-25 16:00 30.69729 -12.20747 38000 ft 429 kts 219°
2026-04-25 16:00 30.63363 -12.26264 38003 ft 429 kts 219°
2026-04-25 16:01 30.58575 -12.30407 38004 ft 429 kts 219°
2026-04-25 16:01 30.53788 -12.34546 38008 ft 429 kts 219°
2026-04-25 16:02 30.49000 -12.38676 38016 ft 429 kts 219°
2026-04-25 16:02 30.44202 -12.42796 38009 ft 429 kts 219°
2026-04-25 16:03 30.39402 -12.46913 38005 ft 429 kts 219°
2026-04-25 16:03 30.34600 -12.51028 38013 ft 429 kts 219°
2026-04-25 16:04 30.29797 -12.55140 38016 ft 429 kts 219°
2026-04-25 16:04 30.24998 -12.59244 38014 ft 429 kts 219°
2026-04-25 16:05 30.20198 -12.63344 38012 ft 429 kts 219°
2026-04-25 16:06 30.12995 -12.69488 38014 ft 429 kts 219°
2026-04-25 16:06 30.08534 -12.74006 37987 ft 424 kts 236°
2026-04-25 16:07 30.05753 -12.79929 38009 ft 420 kts 244°
2026-04-25 16:07 30.02622 -12.85634 38020 ft 422 kts 236°
2026-04-25 16:08 29.99095 -12.91060 38017 ft 423 kts 236°
2026-04-25 16:08 29.95626 -12.96539 38022 ft 423 kts 237°
2026-04-25 16:09 29.92245 -13.02088 38023 ft 423 kts 237°
2026-04-25 16:09 29.88898 -13.07667 38023 ft 423 kts 238°
2026-04-25 16:10 29.85578 -13.13209 38026 ft 423 kts 238°
2026-04-25 16:10 29.82208 -13.18823 38028 ft 423 kts 238°
2026-04-25 16:11 29.78882 -13.24349 38026 ft 422 kts 238°
2026-04-25 16:11 29.75534 -13.29903 38031 ft 422 kts 238°
2026-04-25 16:12 29.72191 -13.35442 38030 ft 421 kts 238°
2026-04-25 16:12 29.68850 -13.40969 38033 ft 420 kts 238°
2026-04-25 16:13 29.65493 -13.46516 38029 ft 420 kts 238°
2026-04-25 16:13 29.62182 -13.51980 38034 ft 419 kts 238°
2026-04-25 16:14 29.58853 -13.57466 38031 ft 418 kts 238°
2026-04-25 16:14 29.55526 -13.62940 38041 ft 417 kts 238°
2026-04-25 16:15 29.52742 -13.67516 38035 ft 417 kts 238°
2026-04-25 16:15 29.49418 -13.72972 38040 ft 417 kts 238°
2026-04-25 16:16 29.46096 -13.78420 38039 ft 416 kts 238°
2026-04-25 16:16 29.42776 -13.83856 38040 ft 416 kts 238°
2026-04-25 16:17 29.39454 -13.89287 38040 ft 416 kts 238°
2026-04-25 16:17 29.36132 -13.94712 38040 ft 416 kts 238°
2026-04-25 16:18 29.32808 -14.00133 38045 ft 415 kts 238°
2026-04-25 16:18 29.29508 -14.05508 38042 ft 415 kts 238°
2026-04-25 16:19 29.26184 -14.10915 38042 ft 415 kts 238°
2026-04-25 16:19 29.22857 -14.16319 38037 ft 415 kts 238°
2026-04-25 16:20 29.17872 -14.24405 38041 ft 414 kts 238°
2026-04-25 16:20 29.14544 -14.29795 37860 ft 417 kts 238°
2026-04-25 16:21 29.12871 -14.32502 37569 ft 414 kts 238°
2026-04-25 16:21 29.11217 -14.35173 37129 ft 409 kts 238°
2026-04-25 16:21 29.09587 -14.37803 36771 ft 403 kts 238°
2026-04-25 16:21 29.07972 -14.40408 36375 ft 400 kts 238°
2026-04-25 16:22 29.06373 -14.42988 36009 ft 396 kts 238°
2026-04-25 16:22 29.04789 -14.45542 35598 ft 393 kts 238°
2026-04-25 16:22 29.03216 -14.48078 35210 ft 390 kts 238°
2026-04-25 16:22 29.01651 -14.50599 34825 ft 387 kts 238°
2026-04-25 16:23 29.00100 -14.53096 34443 ft 384 kts 238°
2026-04-25 16:23 28.98560 -14.55576 34063 ft 382 kts 238°
2026-04-25 16:23 28.97024 -14.58046 33630 ft 380 kts 238°
2026-04-25 16:23 28.95497 -14.60499 33216 ft 377 kts 238°
2026-04-25 16:24 28.93982 -14.62933 32826 ft 374 kts 238°
2026-04-25 16:24 28.92479 -14.65344 32445 ft 372 kts 237°
2026-04-25 16:24 28.90987 -14.67738 32076 ft 369 kts 237°
2026-04-25 16:24 28.89555 -14.70156 31586 ft 368 kts 240°
2026-04-25 16:25 28.88233 -14.72668 31060 ft 370 kts 243°
2026-04-25 16:25 28.87393 -14.74398 30768 ft 369 kts 244°
2026-04-25 16:25 28.85855 -14.77837 30298 ft 365 kts 246°
2026-04-25 16:25 28.84754 -14.80430 29920 ft 362 kts 246°
2026-04-25 16:26 28.83655 -14.83003 29489 ft 360 kts 246°
2026-04-25 16:26 28.82544 -14.85552 29050 ft 358 kts 245°
2026-04-25 16:26 28.81421 -14.88076 28618 ft 356 kts 245°
2026-04-25 16:26 28.80290 -14.90579 28204 ft 354 kts 245°
2026-04-25 16:27 28.79159 -14.93057 27788 ft 352 kts 245°
2026-04-25 16:27 28.78025 -14.95525 27426 ft 351 kts 245°
2026-04-25 16:27 28.76889 -14.97986 26974 ft 351 kts 245°
2026-04-25 16:27 28.75755 -15.00440 26599 ft 348 kts 245°
2026-04-25 16:28 28.74629 -15.02872 26235 ft 346 kts 245°
2026-04-25 16:28 28.73508 -15.05290 25858 ft 344 kts 245°
2026-04-25 16:28 28.72393 -15.07696 25476 ft 342 kts 245°
2026-04-25 16:28 28.71284 -15.10088 25107 ft 341 kts 245°
2026-04-25 16:29 28.70179 -15.12468 24745 ft 339 kts 245°
2026-04-25 16:29 28.69077 -15.14841 24386 ft 338 kts 245°
2026-04-25 16:29 28.67980 -15.17200 24028 ft 336 kts 245°
2026-04-25 16:29 28.66889 -15.19546 23685 ft 335 kts 245°
2026-04-25 16:30 28.65800 -15.21887 23280 ft 334 kts 245°
2026-04-25 16:30 28.64717 -15.24214 22890 ft 332 kts 245°
2026-04-25 16:30 28.63639 -15.26527 22517 ft 330 kts 245°
2026-04-25 16:30 28.62568 -15.28827 22133 ft 328 kts 245°
2026-04-25 16:31 28.61500 -15.31117 21757 ft 327 kts 245°
2026-04-25 16:31 28.60438 -15.33393 21385 ft 325 kts 245°
2026-04-25 16:31 28.59382 -15.35656 21039 ft 323 kts 245°
2026-04-25 16:31 28.58329 -15.37911 20676 ft 322 kts 245°
2026-04-25 16:32 28.57279 -15.40156 20319 ft 321 kts 245°
2026-04-25 16:32 28.56235 -15.42390 19974 ft 319 kts 245°
2026-04-25 16:32 28.55195 -15.44613 19633 ft 318 kts 245°
2026-04-25 16:32 28.54159 -15.46827 19292 ft 316 kts 245°
2026-04-25 16:33 28.53127 -15.49030 18969 ft 315 kts 245°
2026-04-25 16:33 28.52099 -15.51225 18643 ft 314 kts 245°
2026-04-25 16:33 28.51074 -15.53411 18307 ft 313 kts 245°
2026-04-25 16:33 28.50052 -15.55588 17932 ft 312 kts 245°
2026-04-25 16:34 28.49263 -15.57270 17661 ft 310 kts 245°
2026-04-25 16:48 28.48707 -15.58454 17450 ft 310 kts 245°
2026-04-25 16:49 28.47694 -15.60609 17097 ft 308 kts 245°
2026-04-25 16:49 28.46686 -15.62755 16734 ft 307 kts 245°
2026-04-25 16:49 28.45682 -15.64890 16400 ft 306 kts 245°
2026-04-25 16:49 28.44681 -15.67018 16059 ft 305 kts 245°
2026-04-25 16:50 28.43682 -15.69139 15712 ft 304 kts 244°
2026-04-25 16:50 28.42688 -15.71251 15383 ft 303 kts 244°
2026-04-25 16:50 28.42035 -15.72637 15171 ft 302 kts 244°
2026-04-25 17:02 28.41929 -15.72861 15137 ft 302 kts 244°
2026-04-25 17:02 28.41275 -15.74250 14921 ft 301 kts 244°
2026-04-25 17:03 28.39955 -15.77050 14491 ft 300 kts 244°
2026-04-25 17:03 28.38971 -15.79135 14165 ft 299 kts 244°
2026-04-25 17:03 28.37988 -15.81218 13850 ft 299 kts 244°
2026-04-25 17:03 28.37008 -15.83292 13501 ft 298 kts 244°
2026-04-25 17:04 28.36033 -15.85356 13159 ft 296 kts 244°
2026-04-25 17:04 28.35060 -15.87414 12811 ft 296 kts 244°
2026-04-25 17:04 28.34089 -15.89466 12474 ft 295 kts 244°
2026-04-25 17:04 28.33121 -15.91511 12169 ft 293 kts 244°
2026-04-25 17:05 28.32174 -15.93510 11904 ft 290 kts 244°
2026-04-25 17:05 28.30266 -15.97534 11321 ft 287 kts 244°
2026-04-25 17:05 28.29322 -15.99526 10999 ft 286 kts 244°
2026-04-25 17:06 28.28390 -16.01490 10690 ft 286 kts 244°
2026-04-25 17:06 28.27448 -16.03475 10393 ft 286 kts 244°
2026-04-25 17:06 28.26496 -16.05482 10091 ft 285 kts 244°
2026-04-25 17:06 28.25568 -16.07435 9789 ft 285 kts 244°
2026-04-25 17:07 28.24632 -16.09405 9472 ft 283 kts 244°
2026-04-25 17:07 28.23700 -16.11364 9187 ft 281 kts 244°
2026-04-25 17:07 28.22774 -16.13310 8919 ft 279 kts 244°
2026-04-25 17:07 28.22083 -16.14760 8702 ft 278 kts 244°
2026-04-25 17:08 28.21168 -16.16684 8394 ft 277 kts 244°
2026-04-25 17:08 28.20255 -16.18599 8101 ft 276 kts 244°
2026-04-25 17:08 28.19348 -16.20502 7835 ft 273 kts 244°
2026-04-25 17:08 28.18448 -16.22393 7551 ft 272 kts 244°
2026-04-25 17:09 28.17550 -16.24275 7275 ft 271 kts 244°
2026-04-25 17:09 28.16655 -16.26150 6982 ft 270 kts 244°
2026-04-25 17:09 28.15765 -16.28017 6747 ft 268 kts 244°
2026-04-25 17:09 28.14897 -16.29833 6704 ft 254 kts 244°
2026-04-25 17:10 28.14078 -16.31543 6608 ft 240 kts 244°
2026-04-25 17:10 28.13304 -16.33160 6510 ft 226 kts 244°
2026-04-25 17:10 28.12577 -16.34677 6422 ft 212 kts 245°
2026-04-25 17:10 28.11907 -16.36096 6322 ft 197 kts 246°
2026-04-25 17:11 28.11350 -16.37467 6180 ft 187 kts 250°
2026-04-25 17:11 28.10842 -16.38883 5562 ft 203 kts 251°
2026-04-25 17:11 28.10307 -16.40420 4996 ft 216 kts 251°
2026-04-25 17:11 28.09744 -16.42034 4631 ft 218 kts 250°
2026-04-25 17:12 28.09200 -16.43578 4514 ft 205 kts 250°
2026-04-25 17:12 28.08696 -16.45027 4358 ft 191 kts 251°
2026-04-25 17:12 28.08230 -16.46373 4243 ft 176 kts 251°
2026-04-25 17:12 28.07801 -16.47602 4109 ft 160 kts 251°
2026-04-25 17:13 28.07375 -16.48792 3609 ft 168 kts 251°
2026-04-25 17:13 28.07093 -16.49619 3313 ft 171 kts 250°
2026-04-25 17:13 28.06529 -16.51253 2817 ft 162 kts 251°
2026-04-25 17:13 28.06119 -16.52444 2316 ft 164 kts 250°
2026-04-25 17:14 28.05703 -16.53657 1790 ft 167 kts 252°
2026-04-25 17:14 28.05264 -16.54926 1159 ft 176 kts 249°
2026-04-25 17:14 28.04806 -16.56095 1890 ft 136 kts 244°
2026-04-25 17:14 28.04421 -16.57116 2406 ft 162 kts 250°
2026-04-25 17:15 28.04017 -16.58438 2938 ft 180 kts 255°
2026-04-25 17:15 28.03640 -16.59820 3258 ft 212 kts 251°
2026-04-25 17:15 28.03015 -16.61520 2824 ft 234 kts 245°
2026-04-25 17:15 28.02050 -16.62908 2814 ft 222 kts 210°
2026-04-25 17:16 28.00628 -16.63432 2931 ft 212 kts 191°
2026-04-25 17:16 27.99213 -16.63690 2996 ft 202 kts 189°
2026-04-25 17:16 27.97806 -16.63926 3008 ft 205 kts 189°
2026-04-25 17:16 27.96410 -16.64163 3006 ft 201 kts 189°
2026-04-25 17:17 27.95049 -16.64295 2980 ft 199 kts 175°
2026-04-25 17:17 27.93733 -16.63647 3059 ft 224 kts 136°
2026-04-25 17:17 27.92642 -16.62439 3224 ft 211 kts 136°
2026-04-25 17:17 27.91567 -16.61422 3319 ft 194 kts 142°
2026-04-25 17:18 27.90521 -16.60537 3309 ft 184 kts 143°
2026-04-25 17:18 27.89497 -16.59682 3310 ft 181 kts 142°
2026-04-25 17:18 27.88491 -16.58827 3321 ft 182 kts 142°
2026-04-25 17:18 27.87485 -16.57963 3284 ft 182 kts 141°
2026-04-25 17:19 27.86633 -16.56943 3203 ft 176 kts 112°
2026-04-25 17:19 27.86603 -16.55671 2891 ft 162 kts 59°
2026-04-25 17:19 27.87452 -16.54951 2498 ft 154 kts 14°
2026-04-25 17:19 27.88419 -16.54581 2240 ft 144 kts 32°
2026-04-25 17:20 27.89172 -16.53858 1975 ft 142 kts 38°
2026-04-25 17:20 27.89963 -16.53187 1733 ft 142 kts 33°
2026-04-25 17:20 27.90779 -16.52575 1578 ft 138 kts 33°
2026-04-25 17:20 27.91578 -16.51982 1634 ft 142 kts 33°
2026-04-25 17:21 27.92473 -16.51315 1921 ft 163 kts 33°
2026-04-25 17:21 27.93411 -16.50613 2139 ft 158 kts 33°
2026-04-25 17:21 27.94355 -16.50096 2172 ft 147 kts 11°
2026-04-25 17:21 27.95353 -16.49928 2187 ft 144 kts 12°
2026-04-25 17:22 27.96308 -16.49607 2200 ft 143 kts 18°
2026-04-25 17:22 27.96938 -16.49371 2194 ft 145 kts 18°
2026-04-25 17:22 27.98217 -16.48895 2194 ft 145 kts 18°
2026-04-25 17:22 27.99179 -16.48545 2211 ft 147 kts 18°
2026-04-25 17:23 28.00164 -16.48191 2201 ft 149 kts 17°
2026-04-25 17:23 28.01142 -16.47844 2176 ft 144 kts 17°
2026-04-25 17:23 28.02091 -16.47510 2193 ft 143 kts 17°
2026-04-25 17:23 28.03044 -16.47177 2195 ft 143 kts 17°
2026-04-25 17:24 28.03995 -16.46844 2195 ft 142 kts 17°
2026-04-25 17:24 28.04940 -16.46514 2188 ft 143 kts 17°
2026-04-25 17:24 28.05890 -16.46182 2185 ft 143 kts 17°
2026-04-25 17:24 28.06856 -16.45960 2172 ft 143 kts
2026-04-25 17:25 28.07724 -16.46404 2180 ft 142 kts 306°
2026-04-25 17:25 28.07803 -16.47496 2216 ft 153 kts 248°
2026-04-25 17:25 28.07219 -16.48530 2201 ft 153 kts 238°
2026-04-25 17:25 28.06770 -16.49603 2072 ft 156 kts 257°
2026-04-25 17:26 28.06575 -16.50808 1860 ft 154 kts 261°
2026-04-25 17:26 28.06286 -16.51980 1561 ft 156 kts 251°
2026-04-25 17:26 28.05879 -16.53118 1202 ft 155 kts 250°
2026-04-25 17:26 28.05483 -16.54258 807 ft 155 kts 250°
2026-04-25 17:27 28.05089 -16.55399 384 ft 155 kts 250°
2026-04-25 17:27 28.04717 -16.56485 212 ft 139 kts 250°
2026-04-25 17:27 28.04406 -16.57369 201 ft 99 kts 248°
2026-04-25 17:27 28.04328 -16.57596 194 ft 84 kts 249°
2026-04-25 17:28 28.04037 -16.58425 200 ft 43 kts 248°
2026-04-25 17:28 28.03999 -16.58669 197 ft 22 kts 278°
2026-04-25 17:28 28.04056 -16.58789 210 ft 17 kts 346°
2026-04-25 17:28 28.04131 -16.58706 214 ft 17 kts 68°
2026-04-25 17:29 28.04174 -16.58587 221 ft 16 kts 68°
2026-04-25 17:29 28.04205 -16.58469 224 ft 15 kts 68°
2026-04-25 17:29 28.04244 -16.58359 222 ft 15 kts 69°
2026-04-25 17:29 28.04280 -16.58253 223 ft 14 kts 69°
2026-04-25 17:30 28.04346 -16.58192 222 ft 14 kts 349°
2026-04-25 17:30 28.04434 -16.58204 224 ft 13 kts 31°
2026-04-25 17:30 28.04473 -16.58115 224 ft 13 kts 68°
2026-04-25 17:30 28.04505 -16.58023 224 ft 12 kts 70°
2026-04-25 17:31 28.04536 -16.57934 226 ft 12 kts 67°
2026-04-25 17:31 28.04563 -16.57845 223 ft 12 kts 67°
2026-04-25 17:31 28.04593 -16.57761 224 ft 11 kts 69°
2026-04-25 17:31 28.04621 -16.57678 224 ft 11 kts 68°
2026-04-25 17:32 28.04652 -16.57605 224 ft 7 kts 46°
2026-04-25 17:32 28.04676 -16.57604 224 ft 4 kts 332°
2026-04-25 17:32 28.04699 -16.57615 225 ft 4 kts 336°
2026-04-25 17:32 28.04721 -16.57626 226 ft 3 kts 338°
2026-04-25 17:33 28.04726 -16.57628 227 ft 0 kts 338°